{"data":{"norad_id":53672,"epoch":"2026-09-20T23:04:33.924864Z","epoch_age_seconds":41393,"freshness":"FRESH","line1":"1 53672U 22105AA  26263.96150376 -.00000055  00000+0  89223-7 0  9990","line2":"2 53672  97.2837 137.7341 0002111  80.5038 279.6428 15.05650636222614","mean_motion":15.05650636,"eccentricity":0.0002111,"inclination_deg":97.2837,"raan_deg":137.7341,"arg_perigee_deg":80.5038,"mean_anomaly_deg":279.6428,"bstar":8.9223e-8,"rev_number":22261,"period_min":95.639716516548,"perigee_km":548.04677705936,"apogee_km":550.97162928634,"semimajor_km":6927.6462031729,"source":"CELESTRAK","updated_at":"2026-09-21T09:00:32.976933Z"}}